User: anonymous   Login
Location: Unspecified
(0.0000°N, 0.0000°E)
Time: 05:33:35
(UTC+00:00)
Language:

ENMAP - Orbit

View from above orbital plane
View from above orbital plane
View from above satellite
View from above satellite

Ground track
Ground track

The orbit data is extracted from the following two-line orbital elements,

1 52159U 22033C   24174.50753552  .00000754  00000-0  11972-3 0  9991
2 52159  97.9788 256.1659 0001344 109.6772 250.4582 14.74955376119839
Epoch (UTC): 22 June 2024 12:10:51
Eccentricity: 0.0001344
inclination: 97.9788°
perigee height: 644 km
apogee height: 646 km
right ascension of ascending node: 256.1659°
argument of perigee: 109.6772°
revolutions per day: 14.74955376
mean anomaly at epoch: 250.4582°
orbit number at epoch: 11983

The dashed part of the orbit path shows where the satellite is in the earth's shadow,  

DLR